SL-16 DEB, 22342

Orbit data source: Space-Track

SL-16 DEB, 22342 is space debris in LEO originally from a launch on Fri, 25 Dec 1992 UTC launched from the Tyuratam Missile And Space Complex (TTMTR). Debris objects in space refer to the collection of defunct objects orbiting the Earth. Examples of debris include non-operational satellites, rocket bodies, and fragments generated from explosions, collisions, or faulty payload assembly.

Loading next visibility...
SL-16 DEB details
Identifier
22342, 1992-093AF
Orbit
LEO
Last TLE update12 hours ago
Origin
Flag of CISRVSN RF (CIS)
ManufacturerUnknown
MissionSpacecraft
Bus & MotorUnknown
MassUnknown
Launch date (UTC)
1992-12-25 (32 years ago)
Launch vehicleUnknown
Launch site
Tyuratam Missile And Space Complex (TTMTR)
Object type
Payload
Rocket body
Debris
Shape & HBRUnknown
Radar Cross SectionSmall (<0.1 m²)

Expand to show TLE details & history

TLE from 12 hours ago
0 SL-16 DEB
1 22342U 92093AF  24361.26042149  .00000611  00000-0  46791-3 0  9998
2 22342  70.6999  52.5386 0116377 132.9218 295.0866 13.94250152623059
Epoch: 2024-12-26T06:15Z
Definitive object data (Epoch: 2024-12-26T06:15:00.416Z)
Latitude60.2709°
Longitude-98.86518°
Altitude888.305 km
Speed7.432 km/s
True Right ascension06h 00m 30s
True Declination60° 07' 31"
Sunlit
Object was in full shadow at TLE epoch
Visualization TLE readout
Latitude49.5569°
Longitude-113.36137°
Altitude903.334 km
Speed7.414 km/s
Apparent Right ascension05h 20m 00s
Apparent Declination8° 34' 21"
Sunlit
Object is in full shadow
Visualization observer readout
Local Sidereal Time17:36:53
Azimuth5.563° NNE
Elevation-41.354°
Doppler factor1
Orbital elements
Apogee altitude996.586 km
Perigee altitude826.911 km
Semi-major axis7,289.886 km
Eccentricity0.0116377
Inclination70.6999°
RAAN52.5386°
Arg. of periapsis132.9218°
True anomaly293.87141°
Mean anomaly295.0866°
Eccentric anomaly294.47975°
Mean motion3.48708 °/min
BSTAR0.00046791
Orbital period103.24 mins
Loading maneuver chart data...
Loading historical data...
Loading historical data...
Loading historical data...
Loading historical data...
Loading historical data...
Loading historical data...
Loading historical data...

SL-16 DEB Visibility forecast

Observer location: undefined°, undefined

Span
Click to sort rows by Start time (UTC) header in descending order
Start Az.
Max El. time (UTC)
Max El. Az.
Max El.
End time (UTC)
End Az.
10 mins2024-12-27 04:25:25.471Z176.742° S2024-12-27 04:30:25.471Z110.212° ESE36.251°2024-12-27 04:35:25.471Z37.794° NE
8 mins2024-12-27 06:12:25.471Z254.458° W2024-12-27 06:16:25.471Z305.437° NW24.577°2024-12-27 06:20:25.471Z356.154° N
7 mins2024-12-27 13:29:25.471Z12.047° NNE2024-12-27 13:32:25.471Z53.65° ENE22.334°2024-12-27 13:36:25.471Z104.675° ESE
9 mins2024-12-27 15:14:25.471Z319.112° NNW2024-12-27 15:18:25.471Z249.441° W36.085°2024-12-27 15:23:25.471Z181.158° SSW
|